This demonstration page uses our WeatherBlox Daily Observations layout. Learn more.

Left ArrowRight Arrow

39.92423, -83.80882

Hourly Observations for March 1, 2019

Temp ( °F °C ) Dew Point ( °F °C ) Humidity (%) Winds ( mph kmh ) Pressure ( in mb ) Visibility ( mi km ) Precip ( " mm )
12:56 am 00:56 Cloudy 27 -2.8 26 -3.3 96 96 NE 9 15 30.14 1021 10 16.0934 0 0.0254
1:56 am 01:56 Cloudy 27 -2.8 25 -3.9 92 92 NE 8 13 30.15 1021 10 16.0934 0 0
2:56 am 02:56 Cloudy 27 -2.8 26 -3.3 96 96 NE 6 9 30.16 1021 10 16.0934 0 0
3:56 am 03:56 Cloudy 27 -2.8 25 -3.9 92 92 NNE 7 11 30.16 1021 10 16.0934 0 0
4:56 am 04:56 Cloudy 27 -2.8 23 -5 85 85 NNE 8 13 30.14 1021 10 16.0934 0 0
5:56 am 05:56 Cloudy 27 -2.8 23 -5 85 85 NNE 7 11 30.17 1022 10 16.0934 0 0
6:56 am 06:56 Cloudy 26 -3.3 23 -5 88 88 ENE 5 7 30.17 1022 10 16.0934 0 0
7:56 am 07:56 Cloudy 26 -3.3 23 -5 88 88 NE 8 13 30.17 1022 10 16.0934 0 0
8:56 am 08:56 Cloudy 27 -2.8 23 -5 85 85 ENE 7 11 30.18 1022 10 16.0934 0 0
9:56 am 09:56 Sunny 29 -1.7 24 -4.4 82 82 NE 7 11 30.18 1022 10 16.0934 0 0
10:56 am 10:56 Sunny 33 0.6 25 -3.9 72 72 ENE 13 20 30.17 1022 10 16.0934 0 0
11:56 am 11:56 Sunny 35 1.7 27 -2.8 72 72 E 13 20 30.16 1021 10 16.0934 0 0
12:56 pm 12:56 Mostly Cloudy 37 2.8 29 -1.7 73 73 ENE 12 19 30.13 1020 10 16.0934 0 0
1:56 pm 13:56 Cloudy 39 3.9 30 -1.1 70 70 NE 8 13 30.1 1019 10 16.0934 0 0
2:56 pm 14:56 Mostly Cloudy 40 4.4 30 -1.1 68 68 E 9 15 30.07 1018 10 16.0934 0 0
3:56 pm 15:56 Cloudy 41 5 30 -1.1 65 65 ENE 8 13 30.06 1018 10 16.0934 0 0
4:56 pm 16:56 Cloudy 41 5 29 -1.7 62 62 NE 9 15 30.06 1018 10 16.0934 0 0
5:56 pm 17:56 Cloudy 40 4.4 29 -1.7 65 65 NE 8 13 30.08 1019 10 16.0934 0 0
6:56 pm 18:56 Cloudy 39 3.9 27 -2.8 62 62 N 7 11 30.08 1019 10 16.0934 0 0
7:56 pm 19:56 Mostly Clear 34 1.1 24 -4.4 67 67 NNE 8 13 30.09 1019 10 16.0934 0 0
8:56 pm 20:56 Mostly Cloudy 33 0.6 24 -4.4 70 70 NNE 10 17 30.1 1019 10 16.0934 0 0
9:56 pm 21:56 Cloudy 33 0.6 24 -4.4 70 70 NNE 7 11 30.11 1020 10 16.0934 0 0
10:56 pm 22:56 Cloudy 32 0 25 -3.9 75 75 NNE 6 9 30.11 1020 10 16.0934 0 0
11:56 pm 23:56 Cloudy 31 -0.6 25 -3.9 79 79 NNE 3 6 30.11 1020 10 16.0934 0 0

Powered by AerisWeather